Theta_e
326 326 325 322 322 325 326 326 327 328 328 327 326 326 324 322 322 320 319 317 316 315
320 319 319 322 323 324 325 325 326 326 326 325 325 324 323 322 320 318 317 316 315 314
314 315 315 318 317 315 320 321 323 322 322 321 321 320 320 319 317 316 311 311 310 306
311 310 310 311 311 311 311 314 315 314 313 312 311 311 313 312 311 308 305 304 304 301
307 307 305 304 305 304 302 302 303 307 307 306 306 306 308 306 305 303 301 299 298 297
304 304 302 301 300 300 299 299 299 300 302 301 299 300 301 301 300 299 297 296 295 294
301 301 300 300 300 298 298 297 297 297 296 296 296 296 294 294 294 294 293 292 292 291
298 299 300 298 297 296 294 294 293 292 292 292 293 291 291 290 290 289 288 288 288 288
294 292 293 292 290 290 289 289 288 286 286 286 288 292 292 290 288 287 286 285 285 286
288 287 287 287 287 286 285 285 284 284 284 284 286 291 291 289 286 285 285 284 284 284
287 286 285 285 285 284 284 284 283 283 283 284 286 291 290 287 284 284 284 284 283 283
285 283 284 283 283 282 281 280 279 282 280 282 282 290 290 286 283 283 283 283 283 283
283 283 281 281 280 281 281 280 281 283 283 279 281 289 288 285 282 281 281 282 283 283
280 280 280 278 275 277 278 279 276 278 279 281 279 282 288 287 282 281 280 280 280 282
Wind_Speed
11 9 7 7 5 5 6 5 5 5 5 6 7 6 6 4 5 5 6 6 5 3
7 7 6 5 4 3 3 2 4 5 5 5 6 6 6 5 7 5 4 5 5 3
7 7 6 6 6 6 5 2 4 3 3 4 4 3 4 4 3 4 3 3 5 4
7 6 6 6 5 5 5 4 5 5 5 4 3 2 2 2 4 5 3 2 6 3
7 7 6 6 6 6 5 4 4 4 5 4 3 1 3 4 4 6 6 5 4 5
7 8 7 6 6 6 6 4 4 4 4 3 1 3 3 4 4 3 4 4 5 5
7 7 7 6 6 5 5 5 4 4 4 4 3 3 3 4 4 5 4 4 4 4
7 7 7 7 6 6 5 5 5 5 5 4 4 3 4 5 5 6 6 6 5 4
8 7 7 7 6 6 6 5 5 5 6 5 3 7 7 6 6 6 6 6 5 5
7 7 7 6 6 6 6 5 5 5 6 5 5 7 8 8 5 6 6 7 6 5
8 7 6 7 7 6 5 6 4 5 5 5 4 7 8 9 6 5 5 5 6 6
7 8 8 7 7 5 5 4 3 3 5 5 4 9 10 8 5 6 4 4 4 5
7 8 7 6 6 3 4 4 4 5 3 2 4 8 9 7 3 5 4 3 4 7
7 8 8 6 3 5 5 5 5 5 4 3 3 4 8 10 3 4 4 4 3 3
Wind_Direction
188 193 193 184 188 196 200 181 181 191 201 203 195 202 206 202 209 204 207 215 208 209
174 167 166 173 163 162 108 145 196 197 202 215 216 212 206 212 212 191 199 214 212 179
144 139 144 150 144 145 129 164 194 179 190 208 188 193 213 200 183 187 155 155 157 158
139 135 137 150 136 121 112 146 138 133 118 106 106 83 53 110 139 146 147 152 145 163
132 134 123 112 103 110 121 93 119 152 126 123 109 94 191 188 170 158 168 161 136 138
133 127 122 119 115 116 123 111 71 65 84 103 158 166 174 172 150 131 133 145 151 154
136 127 121 117 121 124 119 121 115 110 119 130 134 105 107 113 119 112 99 99 110 120
129 121 122 122 114 107 104 111 117 126 110 99 111 123 136 132 122 119 110 91 85 92
132 128 126 125 132 133 137 132 122 118 124 118 118 127 138 138 133 123 118 114 99 92
132 136 150 143 135 133 132 113 119 122 118 109 114 128 132 135 124 129 134 134 131 118
150 144 144 136 135 131 128 129 137 121 120 120 130 135 138 125 122 118 132 141 141 143
150 145 148 148 144 137 131 124 144 137 130 136 145 146 143 129 119 117 128 139 152 152
154 150 146 144 139 116 117 137 130 126 115 124 140 152 147 136 122 125 141 149 164 173
146 143 140 130 122 128 138 127 108 115 118 148 154 159 158 154 138 156 153 182 189 194